TimeEST,TemperatureF,Dew PointF,Humidity,Sea Level PressureIn,VisibilityMPH,Wind Direction,Wind SpeedMPH,Gust SpeedMPH,PrecipitationIn,Events,Conditions,WindDirDegrees,DateUTC
12:15 AM,29.8,23.4,77,29.81,10.0,NW,8.1,-,N/A,,Overcast,310,2013-03-02 05:15:00
12:35 AM,29.5,23.4,78,29.81,10.0,NNW,10.4,-,N/A,,Overcast,330,2013-03-02 05:35:00
12:55 AM,29.7,23.0,76,29.82,10.0,NW,4.6,-,N/A,,Overcast,320,2013-03-02 05:55:00
1:15 AM,29.7,22.6,75,29.82,10.0,NW,8.1,-,N/A,,Overcast,320,2013-03-02 06:15:00
1:35 AM,29.3,22.3,75,29.82,10.0,NNW,5.8,-,N/A,,Overcast,330,2013-03-02 06:35:00
1:55 AM,29.3,22.1,75,29.82,10.0,WNW,5.8,-,N/A,,Overcast,300,2013-03-02 06:55:00
2:15 AM,29.3,21.9,74,29.81,10.0,NW,4.6,-,N/A,,Overcast,310,2013-03-02 07:15:00
2:35 AM,29.1,22.1,75,29.80,10.0,NW,6.9,-,N/A,,Overcast,320,2013-03-02 07:35:00
2:55 AM,28.9,22.1,76,29.80,10.0,NNW,8.1,-,N/A,,Overcast,330,2013-03-02 07:55:00
3:15 AM,28.8,22.1,76,29.79,10.0,NW,5.8,-,N/A,,Overcast,310,2013-03-02 08:15:00
3:35 AM,28.4,22.1,77,29.78,10.0,NW,8.1,-,N/A,,Overcast,320,2013-03-02 08:35:00
4:15 AM,28.4,22.5,78,29.77,10.0,NW,6.9,-,N/A,,Overcast,320,2013-03-02 09:15:00
4:55 AM,28.4,22.1,77,29.77,10.0,NW,4.6,-,N/A,,Overcast,320,2013-03-02 09:55:00
5:15 AM,28.4,22.5,78,29.77,10.0,NNW,3.5,-,N/A,,Overcast,330,2013-03-02 10:15:00
5:35 AM,28.4,22.5,78,29.77,10.0,NW,4.6,-,N/A,,Overcast,310,2013-03-02 10:35:00
5:55 AM,28.4,22.8,80,29.77,10.0,NNW,3.5,-,N/A,,Overcast,330,2013-03-02 10:55:00
6:15 AM,28.4,22.8,80,29.77,10.0,Calm,Calm,-,N/A,,Overcast,0,2013-03-02 11:15:00
6:35 AM,28.2,23.0,81,29.77,10.0,Calm,Calm,-,N/A,,Overcast,0,2013-03-02 11:35:00
7:15 AM,28.2,22.8,80,29.78,10.0,Calm,Calm,-,N/A,,Overcast,0,2013-03-02 12:15:00
7:35 AM,28.2,23.0,81,29.78,10.0,Calm,Calm,-,N/A,,Overcast,0,2013-03-02 12:35:00
7:55 AM,28.4,22.6,79,29.79,10.0,NW,3.5,-,N/A,,Overcast,320,2013-03-02 12:55:00
8:15 AM,28.0,22.5,80,29.79,10.0,NNW,4.6,-,N/A,Snow,Light Snow,340,2013-03-02 13:15:00
8:35 AM,27.7,22.3,80,29.79,4.0,NNW,4.6,-,N/A,Snow,Light Snow,330,2013-03-02 13:35:00
8:55 AM,28.0,22.8,81,29.79,5.0,NW,3.5,-,N/A,Snow,Light Snow,320,2013-03-02 13:55:00
9:15 AM,28.2,22.6,80,29.79,4.0,NNW,4.6,-,N/A,Snow,Light Snow,340,2013-03-02 14:15:00
9:35 AM,28.4,22.6,79,29.79,3.0,NW,6.9,-,N/A,Snow,Light Snow,320,2013-03-02 14:35:00
9:55 AM,28.9,21.9,75,29.79,5.0,NNW,4.6,-,N/A,Snow,Light Snow,330,2013-03-02 14:55:00
10:15 AM,29.3,21.9,74,29.79,5.0,NW,3.5,-,N/A,Snow,Light Snow,310,2013-03-02 15:15:00
10:35 AM,29.7,22.6,75,29.79,5.0,NW,6.9,-,N/A,Snow,Light Snow,310,2013-03-02 15:35:00
10:55 AM,29.8,20.8,69,29.79,7.0,NW,9.2,-,N/A,Snow,Light Snow,310,2013-03-02 15:55:00
11:15 AM,30.9,19.6,63,29.79,7.0,WNW,12.7,19.6,N/A,Snow,Light Snow,300,2013-03-02 16:15:00
11:35 AM,31.1,19.4,62,29.79,10.0,NNW,6.9,-,N/A,,Overcast,330,2013-03-02 16:35:00
11:55 AM,30.4,19.9,65,29.79,10.0,NW,10.4,-,N/A,,Overcast,320,2013-03-02 16:55:00
12:15 PM,30.6,18.3,60,29.79,10.0,NW,10.4,18.4,N/A,,Overcast,320,2013-03-02 17:15:00
12:35 PM,30.2,19.4,64,29.78,10.0,NNW,13.8,18.4,N/A,,Overcast,330,2013-03-02 17:35:00
1:15 PM,29.8,19.2,65,29.77,10.0,NW,12.7,17.3,N/A,,Overcast,310,2013-03-02 18:15:00
1:35 PM,29.8,19.2,65,29.77,10.0,NW,9.2,17.3,N/A,,Overcast,310,2013-03-02 18:35:00
1:55 PM,29.8,19.8,66,29.76,10.0,NNW,10.4,16.1,N/A,,Overcast,330,2013-03-02 18:55:00
2:15 PM,29.8,19.2,65,29.76,10.0,NW,6.9,-,N/A,,Overcast,310,2013-03-02 19:15:00
2:35 PM,31.3,17.8,57,29.76,10.0,WNW,9.2,18.4,N/A,,Overcast,300,2013-03-02 19:35:00
2:55 PM,30.7,19.2,62,29.75,10.0,NNW,13.8,18.4,N/A,,Overcast,330,2013-03-02 19:55:00
3:15 PM,28.9,18.5,65,29.76,10.0,NNW,16.1,25.3,N/A,Snow,Light Snow,330,2013-03-02 20:15:00
3:35 PM,28.4,18.5,66,29.76,10.0,NNW,13.8,19.6,N/A,,Overcast,330,2013-03-02 20:35:00
3:55 PM,28.4,17.2,63,29.77,10.0,WNW,15.0,23.0,N/A,,Overcast,300,2013-03-02 20:55:00
4:15 PM,27.5,16.7,64,29.77,10.0,WNW,10.4,21.9,N/A,,Overcast,290,2013-03-02 21:15:00
4:35 PM,27.5,16.5,63,29.77,10.0,WNW,21.9,27.6,N/A,,Overcast,290,2013-03-02 21:35:00
4:55 PM,26.6,16.7,66,29.78,10.0,NW,13.8,26.5,N/A,,Overcast,320,2013-03-02 21:55:00
5:15 PM,26.4,16.3,66,29.78,10.0,WNW,13.8,23.0,N/A,,Overcast,300,2013-03-02 22:15:00
5:35 PM,26.2,16.5,67,29.78,10.0,WNW,19.6,27.6,N/A,,Overcast,290,2013-03-02 22:35:00
5:55 PM,25.5,17.6,72,29.79,7.0,NW,5.8,18.4,N/A,Snow,Light Snow,310,2013-03-02 22:55:00
6:15 PM,24.8,18.1,76,29.80,10.0,NW,10.4,19.6,N/A,Snow,Light Snow,320,2013-03-02 23:15:00
6:35 PM,24.4,17.6,75,29.80,10.0,NW,15.0,23.0,N/A,,Overcast,310,2013-03-02 23:35:00
6:55 PM,24.1,17.4,76,29.81,10.0,WNW,10.4,20.7,N/A,,Overcast,300,2013-03-02 23:55:00
7:15 PM,23.9,17.1,75,29.81,10.0,NW,15.0,24.2,N/A,Snow,Light Snow,310,2013-03-03 00:15:00
7:35 PM,23.4,17.1,77,29.82,10.0,NW,11.5,23.0,N/A,,Overcast,320,2013-03-03 00:35:00
8:15 PM,22.8,16.5,77,29.82,10.0,NNW,10.4,-,N/A,,Overcast,330,2013-03-03 01:15:00
8:35 PM,22.8,16.9,78,29.82,10.0,NW,11.5,17.3,N/A,,Overcast,320,2013-03-03 01:35:00
8:55 PM,22.5,15.8,76,29.82,7.0,NW,15.0,18.4,N/A,Snow,Light Snow,320,2013-03-03 01:55:00
9:15 PM,22.1,15.4,76,29.83,10.0,NW,12.7,33.4,N/A,Snow,Light Snow,310,2013-03-03 02:15:00
9:35 PM,21.9,15.6,77,29.83,10.0,WNW,11.5,26.5,N/A,Snow,Light Snow,300,2013-03-03 02:35:00
9:55 PM,21.7,15.3,76,29.83,10.0,NW,12.7,20.7,N/A,Snow,Light Snow,310,2013-03-03 02:55:00
10:15 PM,21.6,14.9,76,29.83,10.0,WNW,12.7,19.6,N/A,Snow,Light Snow,300,2013-03-03 03:15:00
10:35 PM,21.2,15.4,78,29.83,4.0,NW,9.2,16.1,N/A,Snow,Light Snow,320,2013-03-03 03:35:00
10:55 PM,21.0,13.8,74,29.83,7.0,NW,12.7,19.6,N/A,Snow,Light Snow,320,2013-03-03 03:55:00
11:15 PM,21.0,13.8,74,29.83,10.0,NNW,11.5,20.7,N/A,Snow,Light Snow,330,2013-03-03 04:15:00
11:35 PM,20.8,13.1,72,29.83,10.0,NNW,13.8,23.0,N/A,Snow,Light Snow,330,2013-03-03 04:35:00
11:55 PM,20.7,12.4,70,29.82,7.0,NNW,16.1,25.3,N/A,Snow,Light Snow,330,2013-03-03 04:55:00